Weather in Verkhneye

Russia / Kurgan Oblast     54°53′59″N   64°16′22″E
temp.,
°C
wind,
m/s
gust,
m/s
humid.,
%
clouds,
%
prec.,
mm/h
press.,
hPa
HPBL,
m
19 september, sun
sun1923:00+3wnw511831 0.1 1008335
02:00+1w512915 0.0 1009381
05:00+1w5129052 0.0 1009472
08:00+3wnw71080100 0.1 1009918
11:00+3wnw71193100 0.4 1011748
14:00+6wnw81163100 0.1 10111615
17:00+6wnw71258100 0.2 10131429
20:00+6wnw81353100 0.0 10141526
20 september, mon
mon2023:00+5wnw71252100 0.0 10151505
02:00+4nw71159100 0.0 1016992
05:00+2nw61167100 0.0 1018680
08:00+2nw6107180 0.0 1020684
11:00+6nw6858100 0.0 10211347
14:00+6nnw6851100 0.0 10221538
17:00+6nnw6855100 0.0 10241318
20:00+4nnw4765100 0.0 1025457
21 september, tue
tue2123:00+3nnw377484 0.1 1026321
02:00+1nnw368947 0.0 1027110
05:000nnw36956 0.0 1028114
08:00+1nnw348681 0.0 1029193
11:00+5nw346199 0.0 10281079
14:00+9nw344377 0.0 10271343
17:00+9nnw34405 0.0 10261289
20:00+4wnw125667 0.0 102610
22 september, wed
wed2223:00+4wsw3357100 0.0 102626
02:00+3wsw345962 0.0 102545
05:00+2w46590 0.0 102591
08:00+3wnw36615 0.0 1025166
11:00+9nw454846 0.0 1025829
14:00+11nnw4440100 0.0 10241242
17:00+10n4443100 0.0 10251043
20:00+7n3460100 0.0 102665
23 september, thu
thu2323:00+5n33765 0.0 102739
02:00+3n33875 0.0 102729
05:00+5nw3577100 0.0 1028130
08:00+7n366949 0.0 1030352
11:00+10nne455394 0.0 10311361
14:00+11nne344670 0.0 10311469
17:00+12ne344434 0.0 10311500
20:00+7ene33665 0.0 103223